Time,TemperatureF,DewpointF,PressureIn,WindDirection,WindDirectionDegrees,WindSpeedMPH,WindSpeedGustMPH,Humidity,HourlyPrecipIn,Conditions,Clouds,dailyrainin,SoftwareType,DateUTC
2013-01-21 00:06:00,27.6,8.0,29.94,WNW,287,5.0,12.0,44,0.00,,,0.00,weatherlink.com 1.10,2013-01-21 05:06:00,
2013-01-21 00:21:00,27.4,9.0,29.95,WSW,240,10.0,11.0,45,0.00,,,0.00,weatherlink.com 1.10,2013-01-21 05:21:00,
2013-01-21 00:36:00,27.4,7.0,29.95,West,274,5.0,20.0,42,0.00,,,0.00,weatherlink.com 1.10,2013-01-21 05:36:00,
2013-01-21 00:51:00,27.2,6.0,29.96,NW,304,4.0,16.0,41,0.00,,,0.00,weatherlink.com 1.10,2013-01-21 05:51:00,
2013-01-21 01:06:00,27.0,7.0,29.97,West,280,8.0,16.0,43,0.00,,,0.00,weatherlink.com 1.10,2013-01-21 06:06:00,
2013-01-21 01:21:00,26.7,7.0,29.97,WNW,290,3.0,12.0,43,0.00,,,0.00,weatherlink.com 1.10,2013-01-21 06:21:00,
2013-01-21 01:36:00,26.5,8.0,29.98,WNW,291,14.0,20.0,46,0.00,,,0.00,weatherlink.com 1.10,2013-01-21 06:36:00,
2013-01-21 01:51:00,26.0,10.0,29.99,WNW,292,5.0,17.0,50,0.00,,,0.00,weatherlink.com 1.10,2013-01-21 06:51:00,
2013-01-21 02:06:00,25.7,10.0,30.00,WNW,300,9.0,14.0,51,0.00,,,0.00,weatherlink.com 1.10,2013-01-21 07:06:00,
2013-01-21 02:21:00,25.4,9.0,30.02,WNW,297,5.0,13.0,51,0.00,,,0.00,weatherlink.com 1.10,2013-01-21 07:21:00,
2013-01-21 02:36:00,25.2,9.0,30.02,West,274,7.0,13.0,50,0.00,,,0.00,weatherlink.com 1.10,2013-01-21 07:36:00,
2013-01-21 02:51:00,24.9,9.0,30.02,WNW,301,1.0,9.0,51,0.00,,,0.00,weatherlink.com 1.10,2013-01-21 07:51:00,
2013-01-21 03:06:00,24.4,10.0,30.02,WSW,256,2.0,7.0,54,0.00,,,0.00,weatherlink.com 1.10,2013-01-21 08:06:00,
2013-01-21 03:21:00,24.2,10.0,30.03,West,281,5.0,13.0,55,0.00,,,0.00,weatherlink.com 1.10,2013-01-21 08:21:00,
2013-01-21 04:06:00,23.1,8.0,30.04,WNW,290,5.0,14.0,53,0.00,,,0.00,weatherlink.com 1.10,2013-01-21 09:06:00,
2013-01-21 04:21:00,22.8,7.0,30.05,WSW,257,3.0,12.0,52,0.00,,,0.00,weatherlink.com 1.10,2013-01-21 09:21:00,
2013-01-21 04:36:00,22.6,8.0,30.05,WNW,295,3.0,9.0,53,0.00,,,0.00,weatherlink.com 1.10,2013-01-21 09:36:00,
2013-01-21 04:51:00,22.2,8.0,30.05,NW,320,3.0,4.0,54,0.00,,,0.00,weatherlink.com 1.10,2013-01-21 09:51:00,
2013-01-21 05:06:00,21.9,8.0,30.06,NNW,334,0.0,6.0,55,0.00,,,0.00,weatherlink.com 1.10,2013-01-21 10:06:00,
2013-01-21 05:21:00,21.6,8.0,30.06,NNW,340,0.0,4.0,55,0.00,,,0.00,weatherlink.com 1.10,2013-01-21 10:21:00,
2013-01-21 05:37:00,21.2,8.0,30.07,WNW,285,0.0,7.0,56,0.00,,,0.00,weatherlink.com 1.10,2013-01-21 10:37:00,
2013-01-21 05:52:00,21.4,7.0,30.07,WNW,284,2.0,7.0,55,0.00,,,0.00,weatherlink.com 1.10,2013-01-21 10:52:00,
2013-01-21 06:08:00,21.2,7.0,30.07,West,278,2.0,6.0,55,0.00,,,0.00,weatherlink.com 1.10,2013-01-21 11:08:00,
2013-01-21 06:22:00,20.9,7.0,30.07,West,259,1.0,3.0,55,0.00,,,0.00,weatherlink.com 1.10,2013-01-21 11:22:00,
2013-01-21 06:37:00,20.5,7.0,30.08,SW,235,0.0,3.0,56,0.00,,,0.00,weatherlink.com 1.10,2013-01-21 11:37:00,
2013-01-21 06:52:00,20.0,7.0,30.08,WSW,255,0.0,2.0,58,0.00,,,0.00,weatherlink.com 1.10,2013-01-21 11:52:00,
2013-01-21 07:07:00,19.6,7.0,30.08,NW,309,0.0,3.0,58,0.00,,,0.00,weatherlink.com 1.10,2013-01-21 12:07:00,
2013-01-21 07:22:00,19.3,7.0,30.08,WNW,291,0.0,1.0,59,0.00,,,0.00,weatherlink.com 1.10,2013-01-21 12:22:00,
2013-01-21 07:37:00,20.0,8.0,30.09,SW,214,0.0,2.0,59,0.00,,,0.00,weatherlink.com 1.10,2013-01-21 12:37:00,
2013-01-21 07:52:00,20.1,9.0,30.10,SSW,195,1.0,2.0,61,0.00,,,0.00,weatherlink.com 1.10,2013-01-21 12:52:00,
2013-01-21 08:07:00,20.3,8.0,30.10,SW,231,1.0,3.0,60,0.00,,,0.00,weatherlink.com 1.10,2013-01-21 13:07:00,
2013-01-21 08:22:00,20.5,9.0,30.11,SSE,155,0.0,6.0,60,0.00,,,0.00,weatherlink.com 1.10,2013-01-21 13:22:00,
2013-01-21 08:37:00,20.8,8.0,30.10,SSW,206,4.0,5.0,59,0.00,,,0.00,weatherlink.com 1.10,2013-01-21 13:37:00,
2013-01-21 08:52:00,21.4,8.0,30.10,SW,215,2.0,4.0,57,0.00,,,0.00,weatherlink.com 1.10,2013-01-21 13:52:00,
2013-01-21 09:07:00,21.8,7.0,30.11,SSE,156,1.0,5.0,53,0.00,,,0.00,weatherlink.com 1.10,2013-01-21 14:07:00,
2013-01-21 09:22:00,22.6,7.0,30.11,West,259,1.0,3.0,52,0.00,,,0.00,weatherlink.com 1.10,2013-01-21 14:22:00,
2013-01-21 09:37:00,23.0,7.0,30.11,SSE,153,3.0,4.0,51,0.00,,,0.00,weatherlink.com 1.10,2013-01-21 14:37:00,
2013-01-21 09:52:00,23.1,6.0,30.11,SW,225,4.0,7.0,49,0.00,,,0.00,weatherlink.com 1.10,2013-01-21 14:52:00,
2013-01-21 10:08:00,23.2,7.0,30.11,WNW,288,1.0,6.0,49,0.00,,,0.00,weatherlink.com 1.10,2013-01-21 15:08:00,
2013-01-21 10:23:00,23.4,6.0,30.11,WNW,295,2.0,6.0,48,0.00,,,0.00,weatherlink.com 1.10,2013-01-21 15:23:00,
2013-01-21 10:38:00,23.7,6.0,30.10,WNW,298,4.0,8.0,47,0.00,,,0.00,weatherlink.com 1.10,2013-01-21 15:38:00,
2013-01-21 10:53:00,24.0,6.0,30.09,SW,229,2.0,5.0,47,0.00,,,0.00,weatherlink.com 1.10,2013-01-21 15:53:00,
2013-01-21 11:07:00,24.8,7.0,30.08,SW,231,3.0,5.0,46,0.00,,,0.00,weatherlink.com 1.10,2013-01-21 16:07:00,
2013-01-21 11:22:00,24.6,5.0,30.07,West,270,1.0,6.0,44,0.00,,,0.00,weatherlink.com 1.10,2013-01-21 16:22:00,
2013-01-21 11:37:00,24.7,5.0,30.06,WNW,283,2.0,8.0,43,0.00,,,0.00,weatherlink.com 1.10,2013-01-21 16:37:00,
2013-01-21 11:53:00,25.2,5.0,30.05,WSW,238,7.0,9.0,43,0.00,,,0.00,weatherlink.com 1.10,2013-01-21 16:53:00,
2013-01-21 12:08:00,25.1,5.0,30.04,WSW,239,2.0,10.0,42,0.00,,,0.00,weatherlink.com 1.10,2013-01-21 17:08:00,
2013-01-21 12:23:00,25.7,6.0,30.03,West,274,4.0,6.0,43,0.00,,,0.00,weatherlink.com 1.10,2013-01-21 17:23:00,
2013-01-21 12:38:00,25.8,6.0,30.02,SW,222,0.0,7.0,43,0.00,,,0.00,weatherlink.com 1.10,2013-01-21 17:38:00,
2013-01-21 12:53:00,25.9,6.0,30.01,SW,229,0.0,9.0,43,0.00,,,0.00,weatherlink.com 1.10,2013-01-21 17:53:00,
2013-01-21 13:08:00,26.1,6.0,30.01,West,264,1.0,8.0,43,0.00,,,0.00,weatherlink.com 1.10,2013-01-21 18:08:00,
2013-01-21 13:23:00,26.0,6.0,30.00,WNW,284,0.0,7.0,43,0.00,,,0.00,weatherlink.com 1.10,2013-01-21 18:23:00,
2013-01-21 13:38:00,26.2,6.0,30.00,SSW,203,2.0,9.0,43,0.00,,,0.00,weatherlink.com 1.10,2013-01-21 18:38:00,
2013-01-21 13:53:00,26.4,7.0,30.00,SW,222,1.0,9.0,43,0.00,,,0.00,weatherlink.com 1.10,2013-01-21 18:53:00,
2013-01-21 14:08:00,26.7,6.0,29.99,SW,219,1.0,9.0,42,0.00,,,0.00,weatherlink.com 1.10,2013-01-21 19:08:00,
2013-01-21 14:23:00,27.0,7.0,29.99,SSW,192,1.0,9.0,42,0.00,,,0.00,weatherlink.com 1.10,2013-01-21 19:23:00,
2013-01-21 14:38:00,26.8,6.0,29.98,SW,226,1.0,6.0,42,0.00,,,0.00,weatherlink.com 1.10,2013-01-21 19:38:00,
2013-01-21 14:53:00,26.9,7.0,29.98,West,280,2.0,7.0,43,0.00,,,0.00,weatherlink.com 1.10,2013-01-21 19:53:00,
2013-01-21 15:08:00,26.8,6.0,29.97,SSW,200,3.0,11.0,42,0.00,,,0.00,weatherlink.com 1.10,2013-01-21 20:08:00,
2013-01-21 15:23:00,26.9,8.0,29.97,SSW,210,3.0,6.0,45,0.00,,,0.00,weatherlink.com 1.10,2013-01-21 20:23:00,
2013-01-21 15:38:00,26.8,8.0,29.97,ESE,119,0.0,4.0,45,0.00,,,0.00,weatherlink.com 1.10,2013-01-21 20:38:00,
2013-01-21 15:53:00,26.7,7.0,29.96,West,259,2.0,4.0,44,0.00,,,0.00,weatherlink.com 1.10,2013-01-21 20:53:00,
2013-01-21 16:23:00,26.7,8.0,29.94,SSW,205,4.0,4.0,46,0.00,,,0.00,weatherlink.com 1.10,2013-01-21 21:23:00,
2013-01-21 16:38:00,26.7,9.0,29.94,SSW,201,0.0,3.0,47,0.00,,,0.00,weatherlink.com 1.10,2013-01-21 21:38:00,
2013-01-21 16:53:00,26.7,10.0,29.94,SE,134,1.0,4.0,49,0.00,,,0.00,weatherlink.com 1.10,2013-01-21 21:53:00,
2013-01-21 17:08:00,26.8,12.0,29.93,SSW,193,3.0,9.0,53,0.00,,,0.00,weatherlink.com 1.10,2013-01-21 22:08:00,
2013-01-21 17:24:00,26.8,13.0,29.94,SSW,211,4.0,7.0,57,0.00,,,0.00,weatherlink.com 1.10,2013-01-21 22:24:00,
2013-01-21 17:39:00,26.4,16.0,29.93,SE,146,4.0,9.0,64,0.00,,,0.00,weatherlink.com 1.10,2013-01-21 22:39:00,
2013-01-21 17:54:00,25.8,18.0,29.93,WSW,257,3.0,6.0,71,0.00,,,0.00,weatherlink.com 1.10,2013-01-21 22:54:00,
2013-01-21 18:09:00,25.2,19.0,29.94,West,273,1.0,4.0,77,0.00,,,0.00,weatherlink.com 1.10,2013-01-21 23:09:00,
2013-01-21 18:23:00,24.5,20.0,29.94,SSW,200,1.0,4.0,83,0.00,,,0.00,weatherlink.com 1.10,2013-01-21 23:23:00,
2013-01-21 18:38:00,24.2,20.0,29.93,WSW,252,0.0,1.0,85,0.00,,,0.00,weatherlink.com 1.10,2013-01-21 23:38:00,
2013-01-21 18:55:00,23.9,21.0,29.93,West,259,0.0,1.0,87,0.00,,,0.00,weatherlink.com 1.10,2013-01-21 23:55:00,
2013-01-21 19:10:00,23.8,21.0,29.93,NW,312,2.0,3.0,88,0.00,,,0.00,weatherlink.com 1.10,2013-01-22 00:10:00,
2013-01-21 19:25:00,23.3,21.0,29.92,NNW,331,1.0,5.0,89,0.00,,,0.00,weatherlink.com 1.10,2013-01-22 00:25:00,
2013-01-21 19:39:00,23.1,21.0,29.92,NNE,26,1.0,4.0,90,0.00,,,0.00,weatherlink.com 1.10,2013-01-22 00:39:00,
2013-01-21 19:57:00,-999.0,-99.9,29.91,North,-999,-999.0,-999.0,-999,0.00,,,0.00,weatherlink.com 1.10,2013-01-22 00:57:00,
2013-01-21 20:09:00,-999.0,-99.9,29.91,North,-999,-999.0,-999.0,-999,0.00,,,0.00,weatherlink.com 1.10,2013-01-22 01:09:00,
2013-01-21 20:24:00,-999.0,-99.9,29.91,North,-999,-999.0,-999.0,-999,0.00,,,0.00,weatherlink.com 1.10,2013-01-22 01:24:00,
2013-01-21 20:39:00,-999.0,-99.9,29.91,North,-999,-999.0,-999.0,-999,0.00,,,0.00,weatherlink.com 1.10,2013-01-22 01:39:00,
2013-01-21 20:55:00,-999.0,-99.9,29.89,North,-999,-999.0,-999.0,-999,0.00,,,0.00,weatherlink.com 1.10,2013-01-22 01:55:00,
2013-01-21 21:10:00,22.1,19.0,29.89,NW,313,1.0,4.0,89,0.00,,,0.00,weatherlink.com 1.10,2013-01-22 02:10:00,
2013-01-21 21:25:00,22.0,20.0,29.89,NNE,30,0.0,3.0,90,0.00,,,0.00,weatherlink.com 1.10,2013-01-22 02:25:00,
2013-01-21 21:40:00,22.1,20.0,29.89,NE,41,2.0,3.0,90,0.00,,,0.00,weatherlink.com 1.10,2013-01-22 02:40:00,
2013-01-21 21:55:00,22.0,19.0,29.88,NNW,337,0.0,2.0,89,0.00,,,0.00,weatherlink.com 1.10,2013-01-22 02:55:00,
2013-01-21 22:10:00,22.0,20.0,29.87,NW,312,2.0,4.0,90,0.00,,,0.00,weatherlink.com 1.10,2013-01-22 03:10:00,
2013-01-21 22:25:00,21.9,20.0,29.86,WNW,300,2.0,3.0,90,0.00,,,0.00,weatherlink.com 1.10,2013-01-22 03:25:00,
2013-01-21 22:40:00,21.8,19.0,29.85,NNW,343,0.0,5.0,90,0.00,,,0.00,weatherlink.com 1.10,2013-01-22 03:40:00,
2013-01-21 22:55:00,21.8,19.0,29.84,SE,131,1.0,3.0,90,0.00,,,0.00,weatherlink.com 1.10,2013-01-22 03:55:00,
2013-01-21 23:10:00,21.9,20.0,29.82,WNW,301,0.0,3.0,90,0.00,,,0.00,weatherlink.com 1.10,2013-01-22 04:10:00,
2013-01-21 23:26:00,21.9,20.0,29.82,North,9,1.0,1.0,90,0.00,,,0.00,weatherlink.com 1.10,2013-01-22 04:26:00,
2013-01-21 23:41:00,21.9,20.0,29.81,NW,323,1.0,3.0,90,0.00,,,0.00,weatherlink.com 1.10,2013-01-22 04:41:00,
2013-01-21 23:55:00,21.8,19.0,29.81,WNW,298,0.0,4.0,90,0.00,,,0.00,weatherlink.com 1.10,2013-01-22 04:55:00,